Location: High Point State Park
(41.2941°N, 74.6906°W)
Time: 20:23:29
(UTC-04:00)

HST - Visible Passes

Search period start: 20 August 2014 00:00
Search period end: 30 August 2014 00:00
Orbit: 548 x 551 km, 28.5° (Epoch: 19 August)

Date Brightness Start Highest point End Pass type
(mag) Time Alt. Az. Time Alt. Az. Time Alt. Az.
24 Aug 2.9 05:43:36 10° SW 05:45:47 14° S 05:47:58 10° SSE visible
25 Aug 2.9 05:36:42 10° SW 05:38:44 13° S 05:40:45 10° SSE visible
26 Aug 3.0 05:29:57 10° SSW 05:31:40 12° S 05:33:24 10° SSE visible
27 Aug 3.0 05:23:27 10° SSW 05:24:36 11° SSW 05:25:45 10° S visible
